Wetbulb
59.61 59.71 58.95 53.10 44.44 42.30 37.93 39.21 46.77 45.74 46.49 48.41 48.95 48.13 48.23 49.23 48.55 47.79 66.51 68.17 70.68 71.39 73.76 73.93 75.40 75.90 75.65 75.23 75.24 75.05 75.12 74.99 75.05 75.14 74.74 74.08 73.33 72.87 72.12 71.90 71.91 72.03 73.06 73.65 73.62 72.89 72.18 71.51 70.42
58.90 58.71 54.90 47.39 40.13 35.19 35.88 42.30 43.53 46.52 48.81 49.34 49.19 48.73 47.67 48.52 57.06 62.44 66.45 69.67 70.84 72.25 73.54 73.06 74.84 75.72 75.46 75.16 74.84 74.82 74.95 74.89 74.54 73.71 73.55 73.89 73.12 72.92 72.61 72.34 72.15 73.08 73.97 73.51 73.56 72.70 71.41 70.42 70.21
58.32 55.50 50.09 42.67 38.59 35.31 35.62 42.18 44.58 47.07 48.07 48.39 47.66 48.97 48.84 53.96 57.37 62.04 66.03 69.85 71.41 72.37 72.90 72.96 74.72 75.30 75.17 75.13 74.95 74.75 74.82 74.77 74.65 74.31 73.54 74.12 73.44 73.10 73.28 73.30 73.57 73.68 73.18 72.93 72.94 72.06 71.36 70.70 69.98
54.11 52.53 48.36 40.37 36.33 39.33 40.27 44.22 45.47 45.07 46.88 47.41 46.25 45.70 52.43 52.05 51.05 57.84 63.68 70.46 71.22 71.88 72.58 73.07 74.06 74.57 74.98 74.78 74.91 74.85 74.35 74.20 74.45 74.26 74.14 73.31 73.67 73.10 73.84 73.99 73.31 72.35 72.79 72.83 72.13 71.89 71.31 71.18 70.69
51.36 46.88 39.58 36.93 37.55 40.83 43.68 45.70 45.64 43.60 44.01 44.74 45.22 45.03 46.03 53.55 52.45 54.57 64.37 68.57 70.19 71.07 72.05 72.78 73.96 73.79 74.26 74.45 74.23 74.34 74.26 73.91 74.18 74.01 73.57 73.29 73.35 73.37 73.63 73.55 73.10 72.76 72.59 72.78 71.61 70.88 70.15 69.44 69.75
45.67 43.62 34.91 33.13 35.73 40.76 42.88 44.32 44.14 42.42 43.49 44.55 44.87 44.36 47.46 53.30 50.79 53.76 61.60 66.39 68.58 70.47 71.69 72.51 72.76 73.48 73.22 73.43 73.53 73.74 73.61 73.41 73.63 73.91 73.71 73.24 73.17 73.15 72.94 73.03 73.21 72.98 72.66 72.10 71.26 70.46 69.53 69.46 69.30
42.95 37.21 33.01 34.22 35.55 38.74 41.42 43.45 41.78 41.90 42.55 43.76 45.35 43.59 47.94 50.32 50.45 53.71 57.23 66.51 67.27 69.49 70.97 71.85 72.38 72.24 72.23 72.36 72.36 72.52 73.05 73.02 73.22 73.05 73.42 73.15 72.71 72.67 72.49 72.44 72.51 72.52 72.14 72.05 71.61 70.33 69.51 69.25 69.21
44.63 41.09 36.36 36.62 35.42 36.38 41.43 43.01 43.36 42.39 42.14 46.14 46.70 43.95 45.71 48.53 49.93 52.96 55.41 58.48 64.72 66.31 68.41 70.62 71.80 72.11 71.89 71.88 71.19 71.21 71.42 71.65 72.29 72.37 72.00 71.00 70.55 70.98 71.64 71.29 71.38 71.48 71.33 71.39 71.22 70.72 69.52 69.74 69.11
45.65 35.56 32.67 35.20 36.34 38.09 42.04 40.82 43.65 44.01 42.54 43.23 45.25 46.72 48.82 48.60 50.24 51.30 52.25 54.60 56.25 60.66 65.40 67.50 69.37 70.79 71.03 71.15 70.49 70.43 70.40 70.42 70.38 70.81 69.52 69.76 72.17 71.75 70.90 69.27 69.50 70.51 70.80 71.21 70.99 70.36 69.52 69.07 67.55
40.40 33.16 33.95 39.55 40.49 39.83 41.53 40.41 40.65 40.49 39.90 40.45 42.89 46.14 47.94 47.51 48.00 48.06 49.09 50.17 52.40 54.15 58.44 65.22 66.85 68.97 69.95 70.26 70.70 70.68 69.98 70.86 71.26 71.31 71.19 71.47 71.53 71.25 70.51 68.21 68.10 70.12 70.17 70.29 70.46 69.68 68.83 67.78 67.15
39.78 34.77 38.60 40.47 41.65 39.02 38.09 38.09 40.69 38.60 37.04 40.24 41.17 43.75 45.26 45.92 46.86 47.32 48.05 48.87 49.94 52.52 56.79 60.56 65.97 66.00 68.49 69.67 69.46 68.43 67.74 68.65 68.96 69.25 69.95 70.32 70.37 70.46 70.30 70.11 70.09 70.16 67.82 69.78 69.39 68.36 67.20 65.88 65.68
34.72 36.91 37.30 38.36 38.58 37.77 36.48 38.71 37.45 38.67 40.01 43.25 43.32 43.99 43.55 43.97 45.28 46.59 46.84 47.97 48.82 51.12 53.32 58.64 65.48 64.93 65.62 68.41 67.82 67.50 66.22 67.26 67.88 68.56 68.82 69.17 69.40 69.34 69.43 69.21 69.90 69.19 69.28 68.56 69.15 68.18 66.79 63.96 63.77
34.46 34.55 36.96 38.15 37.89 37.50 38.15 36.37 36.55 37.41 41.02 42.37 42.34 42.59 42.29 43.17 44.33 45.80 47.32 47.81 48.99 49.24 51.74 54.20 62.04 64.96 64.63 65.45 66.45 65.73 65.46 65.61 66.28 67.71 68.00 68.35 68.60 67.76 68.03 67.55 68.26 68.89 68.62 68.61 68.35 67.70 66.14 64.66 62.65
35.36 35.84 35.77 36.76 36.32 36.80 35.28 35.61 36.76 38.03 40.10 39.90 40.58 41.29 41.81 42.25 43.34 44.49 45.66 46.43 47.54 49.11 50.88 53.03 56.56 64.25 64.64 64.47 64.70 66.33 64.80 64.77 64.63 65.81 67.18 67.52 67.64 66.26 67.41 67.30 66.63 67.09 67.47 67.62 67.80 67.34 66.68 64.58 63.62
35.76 31.96 33.29 34.29 35.76 35.21 36.90 32.26 33.10 39.23 39.04 38.15 39.15 40.08 41.38 42.28 42.97 43.21 45.16 45.55 46.96 48.22 49.96 50.39 52.99 60.28 64.38 63.37 64.40 65.99 64.58 64.40 63.65 63.95 65.84 66.59 67.21 66.85 66.25 66.47 66.74 67.02 67.42 66.62 66.01 66.87 65.49 65.13 63.77
30.14 30.20 27.99 32.75 34.81 36.16 35.58 30.72 35.56 39.20 37.85 38.35 39.52 40.55 41.39 42.41 42.90 44.53 45.06 45.63 46.69 47.30 47.89 50.04 52.24 59.69 63.70 63.75 63.79 64.88 64.01 64.47 64.09 63.49 64.07 64.10 66.17 66.72 66.61 66.29 66.44 66.96 66.88 67.08 66.66 63.94 64.00 62.65 63.63
27.28 25.78 26.20 29.80 35.33 35.09 34.47 31.76 35.93 39.63 39.50 38.58 39.91 40.80 41.52 42.50 44.20 45.35 45.16 45.62 46.33 47.01 48.44 49.56 52.82 57.37 61.79 63.12 63.28 64.23 63.99 63.84 63.62 64.00 63.77 64.38 64.83 65.77 65.93 66.16 66.42 66.70 66.40 66.19 65.99 64.38 63.40 61.91 60.93
24.82 24.96 26.38 26.42 32.46 33.41 31.85 31.62 36.45 39.37 39.18 38.78 39.41 40.24 41.18 41.98 42.94 45.15 45.10 45.65 46.42 47.15 49.18 50.12 51.30 56.30 61.27 61.71 62.19 62.34 62.73 62.98 63.32 63.36 63.15 63.73 64.30 65.19 65.61 65.05 65.04 65.81 64.99 64.61 65.12 63.94 62.06 61.61 61.55
26.81 26.01 24.94 28.16 32.97 31.13 30.81 31.63 34.96 38.35 39.37 39.31 39.80 40.28 41.09 41.67 43.77 44.24 44.07 45.66 46.44 47.25 47.51 49.32 52.21 56.71 60.47 60.76 60.86 60.71 59.83 60.84 61.91 62.75 62.49 63.09 63.29 63.94 64.95 64.58 63.94 64.64 63.60 63.13 63.52 63.88 62.27 60.69 60.05
28.52 25.95 25.38 29.64 32.30 33.22 33.39 32.87 36.80 38.37 38.47 38.85 38.78 39.67 41.03 40.45 41.10 41.90 43.64 44.82 45.69 46.40 47.51 48.61 52.19 58.67 60.64 61.48 60.69 61.47 61.55 62.09 62.04 62.37 62.69 62.91 63.24 63.58 64.01 64.37 63.52 63.35 63.72 62.60 62.12 62.28 61.15 60.80 59.06
26.20 25.39 25.81 27.96 31.74 35.10 33.49 32.30 32.20 35.25 36.83 39.51 42.62 42.79 42.71 41.33 42.10 43.51 42.83 44.23 46.09 46.65 49.14 50.24 53.04 58.13 59.57 61.09 60.96 60.60 61.14 61.35 61.24 61.53 61.99 62.47 63.16 63.86 63.64 63.79 64.49 64.38 63.66 63.41 61.81 61.24 60.04 58.81 59.34
25.11 30.00 30.18 29.96 30.70 27.31 34.97 24.03 29.64 32.31 33.94 39.27 41.68 42.43 43.72 44.84 46.31 47.29 48.48 49.03 50.58 51.76 53.94 56.18 57.31 59.54 60.17 60.43 60.54 59.19 58.44 57.53 59.73 61.07 61.91 62.31 62.86 62.95 63.88 63.91 63.81 64.01 63.84 63.04 61.77 61.54 60.73 59.79 57.17
30.70 33.87 32.53 33.03 31.51 30.98 29.23 26.89 29.32 32.60 34.40 36.74 41.22 42.62 44.55 45.71 46.43 46.55 47.75 49.12 51.52 52.92 54.37 57.78 58.99 59.38 59.86 59.99 59.78 59.26 57.98 58.98 59.83 60.11 60.10 60.55 61.42 62.52 63.02 63.60 63.49 63.54 63.68 63.37 62.86 61.12 60.43 60.53 59.33
35.35 34.22 34.66 33.79 30.67 22.04 24.19 27.00 28.84 31.96 34.15 36.54 41.60 42.97 43.63 45.11 45.36 45.36 46.87 47.30 47.55 49.75 52.31 53.16 54.60 54.58 55.89 56.49 56.25 56.18 56.12 56.27 58.07 59.23 59.07 59.96 60.83 61.32 61.66 62.24 63.01 63.38 63.10 62.61 62.19 61.81 61.35 60.48 59.94
34.70 33.09 24.58 18.46 17.29 21.20 28.09 26.94 28.75 35.43 36.77 37.84 40.49 41.33 42.05 42.89 43.07 42.97 43.67 44.78 45.86 46.20 48.01 49.71 50.49 51.29 53.12 53.19 53.25 53.20 53.80 53.95 54.38 54.32 58.12 59.13 59.73 60.13 60.26 60.87 61.27 61.64 62.53 62.49 62.26 61.55 61.20 60.77 59.67
34.48 34.23 27.82 20.49 18.66 22.37 30.43 24.87 29.90 37.90 38.69 39.50 41.27 40.50 41.16 41.31 42.12 41.90 42.45 43.10 43.82 44.74 45.46 46.48 47.11 47.24 49.13 49.83 50.01 50.42 50.47 50.58 50.17 50.64 51.61 51.88 52.19 53.19 54.51 55.40 59.11 60.38 60.83 60.95 61.07 60.86 60.60 60.66 60.09
34.66 31.28 37.09 30.56 28.57 25.21 24.73 29.32 37.02 39.51 36.38 37.55 38.43 38.23 38.10 40.54 41.36 41.30 41.89 42.06 42.29 42.67 43.08 43.72 44.89 45.59 46.07 45.82 46.63 47.21 47.57 47.33 46.61 47.14 48.04 49.10 50.00 51.12 51.81 52.64 53.47 54.57 55.74 57.39 59.86 60.42 59.95 59.97 59.77
35.74 36.83 26.89 29.59 21.82 18.82 22.91 26.06 29.62 34.47 34.57 36.69 36.55 35.72 36.63 40.08 41.18 41.63 41.58 41.77 42.23 42.62 42.78 43.08 43.45 43.40 44.12 44.43 44.26 44.57 45.03 45.64 45.78 45.55 45.17 45.57 46.55 46.94 47.89 48.98 50.43 51.12 51.83 52.18 54.13 57.09 59.21 58.95 59.63
33.38 30.85 31.88 30.95 28.91 22.92 22.10 25.16 36.67 36.22 37.11 36.09 36.15 36.49 37.04 39.84 40.69 41.33 41.67 41.55 41.74 41.97 42.16 42.18 42.09 42.08 42.22 42.26 41.83 41.51 42.16 43.21 43.69 43.34 43.16 43.18 43.90 43.87 44.48 45.64 46.59 47.13 48.01 49.24 50.08 51.28 52.51 53.31 57.14
33.98 31.68 29.62 24.99 23.42 25.71 25.03 26.25 38.17 38.94 38.55 37.82 37.07 37.67 39.00 40.69 40.88 40.96 40.95 40.68 40.31 39.85 40.32 40.62 40.85 40.82 40.75 39.99 39.17 38.91 38.97 39.30 39.64 40.01 40.42 41.27 40.85 41.60 42.15 42.55 42.84 43.53 44.60 46.66 46.88 47.46 48.43 48.64 50.11
MSLP
1015.61 1015.48 1015.50 1015.78 1017.08 1017.55 1017.37 1017.53 1017.36 1016.84 1016.68 1016.35 1016.07 1015.78 1015.36 1014.82 1014.09 1013.92 1013.40 1013.29 1013.37 1013.08 1012.92 1012.98 1013.31 1013.51 1013.88 1014.25 1014.47 1014.80 1015.06 1015.24 1015.39 1015.51 1015.64 1015.88 1016.11 1016.35 1016.50 1016.65 1016.79 1016.86 1016.95 1017.09 1017.33 1017.49 1017.73 1018.16 1018.35
1015.72 1015.57 1015.88 1016.82 1017.63 1017.83 1017.85 1017.90 1017.47 1017.14 1016.84 1016.45 1015.93 1015.62 1015.40 1014.73 1014.51 1014.07 1013.49 1013.85 1013.60 1013.38 1013.29 1013.26 1013.44 1013.58 1013.84 1014.22 1014.51 1014.77 1015.04 1015.29 1015.48 1015.67 1015.77 1015.92 1016.08 1016.32 1016.54 1016.70 1016.84 1016.87 1016.93 1017.14 1017.48 1017.74 1018.05 1018.45 1018.65
1015.81 1015.92 1016.64 1017.67 1018.25 1018.13 1018.11 1018.05 1017.79 1017.31 1016.89 1016.41 1015.96 1015.72 1015.70 1016.03 1015.35 1015.14 1014.62 1014.13 1013.74 1013.63 1013.58 1013.57 1013.69 1013.78 1013.97 1014.20 1014.42 1014.67 1014.93 1015.14 1015.39 1015.54 1015.64 1015.96 1016.23 1016.36 1016.44 1016.66 1016.86 1016.96 1017.18 1017.39 1017.65 1018.02 1018.35 1018.66 1018.88
1016.20 1016.75 1018.26 1018.37 1018.57 1018.69 1018.49 1018.29 1018.08 1017.56 1017.10 1016.73 1016.56 1016.16 1016.43 1016.81 1016.52 1016.07 1015.16 1014.17 1013.95 1013.96 1013.86 1013.95 1013.91 1013.90 1014.10 1014.41 1014.52 1014.81 1015.01 1015.13 1015.28 1015.52 1015.74 1015.99 1016.14 1016.28 1016.50 1016.62 1016.91 1017.10 1017.30 1017.54 1017.70 1017.93 1018.30 1018.75 1018.96
1016.83 1017.84 1018.93 1019.45 1019.33 1019.12 1018.86 1018.58 1018.25 1017.85 1017.61 1017.24 1017.03 1016.58 1016.55 1016.61 1016.64 1016.01 1015.08 1014.49 1014.20 1014.12 1014.08 1014.14 1014.24 1014.25 1014.28 1014.37 1014.58 1014.91 1015.11 1015.19 1015.29 1015.50 1015.74 1015.98 1016.16 1016.28 1016.40 1016.65 1016.89 1017.17 1017.46 1017.67 1017.94 1018.18 1018.28 1018.54 1018.88
1017.93 1018.74 1019.70 1020.08 1019.82 1019.32 1019.11 1018.87 1018.53 1018.26 1018.07 1017.67 1017.38 1017.07 1016.69 1016.59 1016.35 1016.03 1015.44 1014.86 1014.42 1014.19 1013.95 1014.04 1014.20 1014.42 1014.64 1014.68 1014.67 1014.77 1015.05 1015.27 1015.34 1015.53 1015.67 1015.92 1016.04 1016.32 1016.52 1016.70 1016.88 1017.10 1017.38 1017.73 1018.10 1018.38 1018.51 1018.51 1018.66
1018.39 1019.41 1020.18 1020.32 1020.15 1019.73 1019.37 1019.02 1018.88 1018.76 1018.53 1018.17 1018.01 1017.31 1016.63 1016.35 1016.53 1016.29 1015.71 1015.22 1014.71 1014.44 1014.02 1014.04 1014.05 1014.23 1014.50 1014.77 1014.93 1014.93 1014.97 1015.11 1015.40 1015.53 1015.65 1015.74 1016.03 1016.29 1016.54 1016.72 1016.96 1017.08 1017.31 1017.56 1018.02 1018.43 1018.70 1018.73 1018.79
1018.86 1019.67 1020.68 1020.77 1020.59 1020.06 1019.79 1019.39 1019.24 1019.11 1018.77 1018.38 1018.03 1017.57 1016.96 1016.65 1016.65 1016.35 1015.80 1015.42 1014.95 1014.85 1014.63 1014.28 1014.16 1014.23 1014.41 1014.59 1014.85 1015.10 1015.14 1015.03 1015.20 1015.44 1015.61 1015.75 1015.98 1016.16 1016.40 1016.69 1016.86 1017.07 1017.30 1017.66 1017.95 1018.34 1018.70 1018.91 1018.96
1019.19 1020.05 1020.87 1020.84 1020.75 1020.25 1020.01 1019.79 1019.61 1019.46 1019.15 1018.81 1018.13 1017.71 1017.24 1016.99 1016.66 1016.27 1015.99 1015.50 1015.31 1015.19 1015.06 1014.77 1014.59 1014.26 1014.27 1014.51 1014.67 1014.88 1015.09 1015.11 1015.19 1015.32 1015.56 1015.80 1015.82 1015.99 1016.17 1016.30 1016.69 1016.99 1017.30 1017.70 1018.07 1018.35 1018.64 1018.99 1019.26
1019.91 1020.81 1020.93 1020.98 1020.79 1020.62 1020.35 1020.11 1019.88 1019.67 1019.44 1018.94 1018.15 1017.37 1017.11 1017.03 1016.90 1016.72 1016.59 1016.39 1015.95 1015.45 1015.20 1014.97 1014.68 1014.55 1014.22 1014.38 1014.59 1014.88 1015.04 1015.08 1015.09 1015.25 1015.39 1015.52 1015.72 1015.75 1016.00 1016.23 1016.55 1016.88 1017.24 1017.60 1017.91 1018.27 1018.62 1018.97 1019.11
1020.79 1021.06 1021.01 1021.09 1021.03 1021.04 1020.87 1020.57 1020.33 1020.01 1019.41 1018.28 1017.83 1017.47 1017.39 1017.18 1016.91 1016.85 1016.51 1016.47 1016.29 1015.75 1015.41 1015.01 1014.69 1014.65 1014.46 1014.24 1014.63 1014.94 1015.20 1015.18 1015.16 1015.29 1015.31 1015.41 1015.64 1015.75 1015.90 1016.17 1016.48 1016.68 1017.20 1017.56 1017.73 1018.16 1018.39 1018.80 1018.88
1021.39 1021.63 1021.59 1021.39 1021.32 1021.39 1021.20 1020.87 1020.51 1020.26 1018.32 1017.80 1017.67 1017.51 1017.58 1017.34 1017.01 1016.79 1016.42 1016.01 1015.93 1015.65 1015.30 1015.00 1014.63 1014.54 1014.48 1014.23 1014.18 1014.74 1015.07 1015.19 1015.14 1015.19 1015.23 1015.40 1015.56 1015.72 1015.80 1015.86 1016.16 1016.49 1016.82 1017.28 1017.31 1017.69 1018.17 1018.72 1018.83
1021.77 1022.14 1021.89 1021.60 1021.56 1021.46 1021.29 1020.90 1020.77 1019.11 1018.05 1017.71 1017.48 1017.51 1017.48 1017.28 1016.95 1016.51 1016.20 1015.70 1015.51 1015.35 1014.93 1014.79 1014.68 1014.43 1014.43 1014.43 1014.28 1014.25 1014.82 1015.03 1015.02 1015.11 1015.14 1015.29 1015.39 1015.63 1015.79 1015.95 1016.21 1016.36 1016.77 1016.91 1017.16 1017.62 1018.00 1018.31 1018.88
1022.38 1022.44 1021.92 1021.54 1021.53 1021.42 1021.28 1020.85 1020.35 1017.88 1017.79 1017.77 1017.68 1017.35 1017.14 1016.86 1016.59 1016.21 1015.89 1015.39 1015.08 1014.82 1014.60 1014.45 1014.40 1014.25 1014.16 1014.30 1014.28 1014.09 1014.43 1015.07 1015.21 1015.00 1014.89 1014.89 1015.13 1015.41 1015.52 1015.77 1016.15 1016.40 1016.62 1017.01 1017.09 1017.24 1017.48 1018.02 1018.35
1022.73 1022.54 1021.79 1021.59 1021.48 1021.30 1021.03 1020.67 1019.65 1018.19 1018.10 1017.75 1017.29 1017.05 1016.54 1016.15 1016.00 1015.52 1015.29 1015.08 1014.69 1014.45 1014.10 1014.00 1013.96 1013.89 1013.89 1013.95 1014.02 1014.03 1013.89 1014.46 1015.01 1014.83 1014.85 1014.83 1014.81 1015.04 1015.37 1015.55 1015.79 1015.96 1016.30 1016.88 1017.17 1017.25 1017.25 1017.70 1017.93
1023.34 1023.12 1022.90 1022.17 1021.72 1021.27 1020.91 1019.98 1019.10 1018.43 1018.11 1017.67 1017.27 1016.68 1016.11 1015.46 1015.20 1014.70 1014.66 1014.38 1014.12 1013.82 1013.85 1013.43 1013.42 1013.40 1013.52 1013.61 1013.58 1013.62 1013.82 1013.76 1014.09 1014.39 1014.64 1014.85 1014.83 1015.08 1015.21 1015.43 1015.50 1015.66 1015.98 1016.39 1016.82 1016.98 1017.14 1017.37 1017.36
1024.28 1024.26 1023.90 1022.59 1021.85 1021.53 1021.11 1019.82 1019.22 1018.45 1018.06 1017.15 1016.70 1016.20 1015.61 1014.66 1014.17 1014.22 1013.96 1013.66 1013.22 1013.14 1013.11 1012.95 1012.90 1012.86 1013.04 1013.17 1013.16 1013.31 1013.53 1013.62 1013.99 1014.39 1014.61 1014.51 1014.62 1014.92 1014.99 1015.05 1015.11 1015.37 1015.61 1015.88 1016.29 1016.46 1016.93 1017.13 1017.42
1025.08 1025.01 1024.39 1023.53 1022.22 1021.83 1021.25 1019.24 1018.94 1018.19 1017.88 1017.17 1016.58 1016.06 1015.44 1014.74 1013.41 1013.42 1013.34 1013.10 1012.78 1012.78 1012.60 1012.47 1012.23 1012.25 1012.73 1012.87 1013.00 1013.12 1013.45 1013.53 1013.67 1014.21 1014.18 1014.09 1014.47 1014.53 1014.65 1014.80 1014.95 1015.11 1015.37 1015.57 1015.79 1016.14 1016.56 1016.98 1017.33
1025.23 1025.44 1025.11 1023.43 1022.58 1022.28 1020.97 1019.56 1017.79 1017.59 1017.50 1017.16 1016.59 1016.05 1015.23 1014.50 1013.54 1013.20 1013.01 1012.68 1012.27 1012.29 1012.36 1012.11 1011.85 1011.40 1012.10 1012.40 1012.43 1012.71 1012.85 1013.26 1013.36 1013.49 1013.65 1013.65 1013.91 1014.01 1014.33 1014.36 1014.76 1014.70 1015.02 1015.18 1015.34 1015.73 1016.03 1016.42 1016.79
1025.42 1025.44 1024.80 1023.35 1022.71 1022.16 1020.35 1018.96 1017.69 1017.34 1017.26 1017.17 1016.65 1016.32 1015.58 1014.58 1013.55 1013.20 1012.97 1012.48 1012.07 1011.59 1011.70 1011.42 1011.41 1010.91 1011.31 1011.74 1011.74 1011.95 1012.44 1012.59 1012.72 1012.72 1012.96 1013.07 1013.10 1013.46 1014.03 1014.12 1014.34 1014.46 1014.45 1014.69 1014.96 1015.08 1015.58 1016.09 1016.52
1025.20 1025.13 1024.65 1024.01 1022.67 1021.35 1020.65 1018.79 1017.84 1017.33 1017.40 1016.67 1016.33 1016.25 1015.84 1015.19 1014.11 1013.20 1012.61 1012.12 1011.72 1011.40 1011.11 1010.79 1010.67 1010.35 1010.69 1011.44 1011.37 1011.86 1012.21 1012.53 1012.65 1012.69 1012.69 1012.84 1012.91 1013.35 1013.67 1013.69 1013.84 1013.84 1013.81 1014.09 1014.15 1014.53 1014.78 1015.21 1015.66
1024.71 1023.96 1023.83 1023.33 1022.79 1021.75 1021.01 1020.08 1018.41 1017.63 1017.32 1016.63 1016.02 1015.88 1015.59 1014.67 1013.98 1013.42 1012.47 1011.90 1011.47 1011.00 1010.81 1010.43 1010.53 1010.53 1010.86 1011.12 1011.04 1011.38 1011.95 1012.27 1012.52 1012.59 1012.59 1012.60 1012.54 1012.53 1012.89 1013.14 1013.24 1013.39 1013.47 1013.73 1013.84 1013.87 1014.02 1014.70 1015.12
1023.46 1023.16 1022.99 1022.59 1022.40 1021.99 1021.26 1021.00 1018.02 1017.74 1017.18 1016.83 1016.17 1015.87 1015.34 1014.85 1014.33 1013.69 1013.14 1012.88 1011.98 1011.29 1010.86 1010.56 1010.67 1010.71 1010.74 1010.68 1011.42 1011.95 1012.30 1012.41 1012.46 1012.59 1012.66 1012.53 1012.64 1012.46 1012.49 1012.56 1012.71 1012.85 1012.86 1012.99 1013.06 1013.37 1013.50 1013.57 1013.96
1022.61 1022.34 1022.08 1022.11 1022.22 1022.23 1020.99 1020.86 1018.27 1018.20 1018.12 1017.30 1016.39 1015.93 1015.63 1015.32 1015.09 1014.59 1014.01 1013.18 1012.89 1012.21 1011.71 1011.70 1011.65 1011.37 1011.71 1011.85 1012.08 1012.42 1012.78 1012.83 1012.63 1012.52 1012.52 1012.48 1012.43 1012.33 1012.32 1012.16 1012.31 1012.30 1012.23 1012.29 1012.37 1012.35 1012.59 1012.73 1012.76
1022.28 1021.77 1021.82 1022.07 1022.23 1021.30 1020.71 1020.59 1018.40 1018.53 1018.38 1017.79 1016.97 1016.77 1016.63 1016.43 1015.99 1015.38 1014.79 1014.24 1013.73 1013.23 1012.80 1012.60 1012.52 1012.39 1012.56 1012.64 1012.94 1013.31 1013.45 1013.43 1013.38 1013.18 1012.80 1012.40 1012.19 1012.18 1012.17 1011.86 1011.73 1011.75 1011.62 1011.64 1011.58 1011.60 1011.54 1011.64 1011.64
1021.54 1021.40 1021.54 1021.92 1021.80 1020.95 1020.41 1019.90 1018.46 1018.54 1018.54 1018.15 1017.71 1017.68 1017.38 1017.11 1016.77 1016.41 1015.86 1015.33 1014.83 1014.65 1014.32 1014.02 1013.91 1013.88 1013.89 1013.74 1014.11 1014.41 1014.36 1014.17 1014.26 1014.19 1013.84 1013.48 1013.44 1013.24 1012.95 1012.23 1011.86 1011.60 1011.26 1010.93 1010.67 1010.58 1010.63 1010.58 1010.50
1020.97 1021.04 1020.94 1021.02 1021.06 1021.14 1019.85 1018.95 1018.42 1018.08 1018.50 1018.46 1018.43 1018.45 1018.20 1017.75 1017.45 1017.12 1016.84 1016.41 1016.03 1015.64 1015.52 1015.27 1015.40 1015.24 1014.96 1014.92 1015.10 1015.14 1015.02 1014.91 1014.92 1014.80 1014.63 1014.26 1014.25 1013.76 1013.80 1012.97 1012.39 1011.91 1011.32 1011.20 1010.40 1009.66 1009.64 1009.70 1009.63
1020.79 1021.04 1021.01 1020.92 1021.20 1021.02 1019.45 1018.87 1018.43 1017.99 1018.24 1018.58 1018.74 1018.93 1018.87 1018.34 1017.96 1017.75 1017.53 1017.32 1017.11 1016.93 1016.69 1016.49 1016.28 1016.02 1016.05 1015.90 1015.78 1015.79 1015.65 1015.57 1015.19 1014.90 1015.40 1014.84 1014.75 1014.28 1014.28 1013.28 1012.80 1012.58 1012.06 1011.79 1011.28 1010.43 1009.78 1009.63 1008.93
1020.88 1020.75 1020.97 1021.17 1021.31 1021.24 1020.28 1018.38 1018.04 1018.04 1018.20 1018.57 1018.92 1019.13 1019.13 1018.72 1018.45 1018.26 1018.17 1018.08 1017.92 1017.72 1017.51 1017.37 1016.88 1016.91 1016.77 1016.58 1016.44 1016.33 1016.38 1016.06 1015.78 1015.87 1015.45 1015.85 1014.97 1014.85 1014.67 1014.56 1013.43 1013.04 1012.87 1012.21 1011.82 1011.20 1010.70 1010.26 1009.81
1020.26 1020.37 1020.75 1021.34 1021.41 1021.18 1020.76 1018.50 1017.78 1017.92 1018.22 1018.56 1018.93 1019.10 1019.03 1018.79 1018.65 1018.53 1018.51 1018.42 1018.31 1018.23 1018.10 1017.80 1017.53 1017.27 1017.44 1017.33 1017.13 1016.95 1016.58 1016.69 1016.37 1016.09 1015.73 1015.95 1015.46 1015.16 1014.78 1014.64 1014.01 1013.78 1013.40 1012.93 1012.20 1011.65 1011.39 1010.86 1010.58
Wind_Speed
4 3 2 4 3 2 2 0 2 2 1 1 4 3 3 4 4 1 7 4 5 9 11 14 12 11 14 14 13 13 11 10 11 11 14 13 12 13 14 14 14 14 13 15 16 16 16 14 14
2 1 4 3 3 2 1 1 1 1 2 9 3 2 2 2 3 8 7 9 3 8 9 11 10 11 13 14 13 12 12 12 11 12 11 13 13 14 14 13 14 13 12 15 17 16 15 15 14
2 4 3 4 3 3 3 2 1 3 5 2 3 1 3 6 11 11 13 13 2 7 8 9 9 10 12 14 14 13 12 12 12 10 11 13 14 14 14 14 12 12 11 15 17 16 15 14 13
2 3 4 3 3 3 2 4 2 4 2 4 3 1 4 8 7 11 16 6 4 5 7 8 7 8 9 12 11 12 13 11 10 12 9 11 14 14 12 12 9 8 12 17 18 17 16 12 10
4 3 4 3 3 3 2 3 2 2 2 4 5 3 3 2 10 15 14 10 4 6 6 7 7 6 7 9 11 11 11 12 11 9 9 11 12 12 12 9 10 11 14 16 16 16 15 13 9
4 2 3 3 3 3 2 2 1 2 3 3 4 5 3 2 14 15 13 9 6 7 10 9 9 8 6 5 6 9 10 10 10 9 9 10 10 11 11 11 13 14 15 15 15 14 13 13 12
5 3 4 4 2 4 0 4 3 1 3 1 4 5 3 5 14 12 12 8 7 5 6 8 9 9 9 8 7 6 6 8 10 10 9 9 8 9 11 11 15 15 15 15 14 13 12 12 11
4 4 4 3 3 3 3 3 1 2 2 7 1 4 5 6 14 11 8 9 9 7 7 6 7 8 9 8 9 8 8 8 7 8 9 7 7 8 10 11 15 16 15 13 13 13 12 10 9
2 4 1 3 5 2 1 5 1 1 3 3 3 3 5 11 10 12 11 9 9 8 7 6 7 8 8 8 7 9 9 9 8 7 7 7 7 8 11 11 11 13 13 13 12 12 11 8 7
4 3 5 1 2 2 4 1 3 3 2 5 9 8 8 7 8 11 10 10 9 11 10 8 7 9 8 6 7 7 5 5 6 6 7 7 7 7 9 10 12 12 13 13 14 11 9 9 6
1 3 3 1 1 3 3 4 2 1 6 11 7 6 9 10 11 11 11 8 9 9 7 9 7 8 8 6 4 2 2 3 3 6 6 6 5 6 7 7 8 9 10 7 10 8 7 7 7
4 3 1 2 1 3 3 3 4 7 15 10 10 9 6 11 13 11 12 13 11 10 10 10 7 7 8 6 5 5 3 3 3 5 7 5 4 6 7 7 9 9 8 8 9 7 8 6 8
3 1 4 4 7 7 4 8 6 17 16 14 13 12 13 13 13 13 12 13 12 11 10 9 9 6 5 7 4 5 4 3 4 5 6 6 6 6 6 6 6 7 6 8 8 7 7 8 7
0 3 6 4 5 4 4 4 1 7 6 9 9 12 12 14 16 14 12 14 12 11 10 8 9 9 5 6 7 7 4 2 3 4 6 9 6 5 7 7 6 6 4 5 6 9 8 7 7
1 5 5 3 4 4 4 2 9 11 8 11 12 13 15 15 14 16 14 14 14 11 10 11 9 9 10 9 8 7 7 8 8 4 4 6 7 7 7 6 7 8 7 7 4 8 6 7 5
5 4 5 1 5 1 3 5 4 5 6 13 16 16 16 18 18 17 13 14 15 12 13 11 8 9 11 8 8 8 5 5 4 4 4 5 5 6 7 7 8 8 8 8 8 5 4 5 7
7 2 2 8 1 3 3 11 4 11 17 19 17 17 17 21 19 15 16 17 16 12 11 11 8 10 11 9 7 9 9 8 5 4 5 6 7 9 8 7 8 10 8 9 9 6 6 5 4
1 1 3 6 3 3 10 22 15 14 14 17 17 17 17 19 23 16 14 15 11 10 10 10 8 10 11 7 5 5 5 5 5 6 6 6 6 8 8 7 9 9 7 7 8 8 4 2 3
4 2 3 6 6 4 9 17 21 16 12 13 13 16 18 19 17 11 11 13 10 9 10 11 10 10 8 4 5 4 5 6 6 7 9 9 8 8 10 7 8 7 9 10 11 9 8 7 4
2 3 6 10 8 5 11 20 17 8 6 7 12 15 17 18 16 13 11 10 10 11 10 9 11 8 9 8 6 3 5 4 3 5 7 8 8 9 11 9 8 9 8 11 11 11 9 5 6
2 4 3 6 7 9 9 8 4 2 3 5 9 7 10 11 14 14 12 10 9 10 11 9 10 9 6 10 6 4 2 0 1 3 4 6 8 10 11 12 10 11 9 9 9 10 13 8 5
3 8 7 6 6 5 5 7 5 4 10 9 13 9 13 13 14 14 11 10 9 9 8 8 8 11 12 10 7 7 3 4 2 2 1 2 5 7 10 11 11 11 8 9 8 8 9 9 9
4 4 6 8 6 5 1 4 6 4 8 16 15 12 9 12 11 12 12 12 10 8 5 3 5 4 4 6 3 3 2 2 2 4 6 6 6 8 9 10 11 11 9 11 11 9 10 11 11
4 3 2 2 2 3 4 2 4 5 10 15 14 13 12 8 10 11 8 11 12 10 11 8 8 8 9 9 10 8 6 5 4 3 4 6 5 4 7 10 10 11 10 11 10 12 14 13 13
2 3 3 4 3 4 4 2 8 5 11 13 12 13 13 12 11 9 12 11 12 15 13 12 13 12 11 12 11 10 9 9 9 8 6 5 4 4 6 6 8 8 10 11 11 12 13 14 14
1 1 2 4 3 6 2 5 3 3 9 12 10 11 11 11 10 11 12 11 12 13 15 14 13 13 11 12 11 10 11 8 8 9 8 7 7 7 9 9 8 6 7 11 12 10 11 12 12
1 1 0 3 2 3 3 5 2 5 10 8 9 10 12 10 10 12 11 11 12 13 14 14 12 11 12 12 10 10 9 10 8 9 8 6 8 8 10 9 10 9 12 12 11 7 9 11 10
4 2 2 0 3 5 4 3 5 12 8 6 4 5 8 9 10 10 10 11 11 11 11 11 11 12 11 10 10 8 9 8 9 9 9 10 7 10 10 10 9 10 9 10 10 9 4 5 6
1 2 1 1 2 2 5 4 2 5 5 3 3 4 4 6 7 7 8 8 9 9 9 9 10 10 9 10 10 9 7 8 8 7 8 7 8 7 9 10 9 10 10 10 9 9 9 11 9
0 3 4 3 3 3 2 6 1 2 3 1 0 1 0 5 7 7 6 7 7 8 7 7 8 9 8 7 6 7 9 9 8 8 9 6 8 10 10 10 11 10 10 8 10 11 9 10 10
Wind_Direction
9 19 62 41 87 57 252 304 273 156 121 115 297 253 285 292 235 255 342 291 343 179 172 162 161 163 157 159 150 150 150 149 155 161 157 158 159 160 162 164 163 162 158 143 138 133 125 126 127
7 28 57 90 98 154 154 247 255 337 306 310 275 252 214 296 349 335 2 337 277 179 171 168 166 158 156 159 157 156 159 159 166 172 176 163 169 167 166 167 169 168 168 144 138 124 128 132 132
94 33 78 91 118 202 133 165 65 302 311 342 348 357 349 353 343 335 333 313 204 173 169 169 168 159 162 165 163 165 167 169 172 175 188 168 174 175 172 171 179 177 150 143 129 130 133 137 138
69 32 55 94 201 235 171 168 344 347 19 33 343 279 93 79 339 319 309 310 181 187 177 177 163 149 154 166 167 169 176 179 181 178 196 180 181 182 184 183 180 179 151 144 139 139 139 142 151
44 59 81 76 269 269 255 279 303 7 34 347 344 324 321 53 349 349 342 333 230 183 185 184 172 174 165 173 180 181 187 186 185 192 195 192 195 193 187 187 170 159 152 145 145 146 146 146 152
60 86 92 186 241 264 291 295 287 32 4 331 8 321 263 9 5 345 336 340 310 228 182 186 181 175 185 182 183 187 193 199 187 191 195 203 205 201 195 173 162 158 152 145 150 155 156 152 149
101 81 144 146 253 303 40 328 80 24 328 348 314 294 284 333 353 340 345 350 347 309 224 198 192 186 171 180 187 191 204 202 206 200 203 203 207 206 200 189 172 161 157 153 159 163 168 165 160
100 97 127 169 184 256 14 19 128 68 291 309 270 292 321 331 337 336 347 6 11 354 319 264 214 196 192 193 187 196 204 207 208 217 205 203 205 205 193 185 183 169 164 158 162 169 176 180 170
111 69 143 184 168 255 45 19 319 213 255 312 287 259 278 314 333 350 353 349 1 2 340 310 275 224 201 197 204 193 201 214 213 204 201 204 208 205 192 188 182 173 167 162 167 176 178 176 173
80 118 200 196 198 271 317 312 332 321 325 266 268 266 269 308 338 337 335 332 335 332 337 316 283 254 208 197 198 194 194 207 211 214 209 206 209 202 201 190 175 173 174 170 172 179 173 173 192
108 156 166 220 260 12 299 299 244 279 279 230 237 251 300 301 313 312 305 294 295 305 307 318 282 266 239 202 184 189 218 197 206 222 217 213 208 204 196 192 189 189 179 181 175 177 186 189 188
96 55 33 259 92 324 271 293 269 208 246 258 247 256 268 283 290 288 296 299 300 306 300 310 294 270 249 212 178 190 201 216 211 215 213 206 206 201 196 198 194 194 185 182 186 185 186 182 199
80 338 284 272 278 252 253 247 252 252 248 255 266 274 268 264 262 276 274 279 277 279 292 295 296 250 241 234 196 166 186 211 227 221 210 206 206 203 195 189 190 197 192 194 190 186 185 194 209
281 268 277 287 304 268 283 282 233 267 271 268 279 276 265 257 263 272 274 275 270 268 271 284 285 263 215 225 218 189 150 233 248 227 215 199 199 186 194 195 193 199 170 214 194 200 192 204 200
80 348 335 16 356 311 280 260 234 273 310 297 295 290 287 271 257 254 257 268 272 262 261 267 273 262 224 218 212 194 186 184 219 217 237 214 194 194 201 197 199 199 193 193 208 209 180 202 195
46 48 359 66 322 349 38 269 267 307 318 299 292 286 280 272 265 261 254 255 266 255 255 258 259 251 235 217 207 208 204 193 214 196 208 218 221 225 217 217 215 207 199 202 203 177 207 204 200
16 48 327 313 336 306 43 289 251 289 308 303 300 297 293 291 277 266 256 254 256 248 247 248 243 240 232 222 213 212 210 206 194 211 228 233 233 229 225 229 227 213 207 205 210 188 190 203 203
329 12 286 264 308 12 294 275 278 282 301 296 299 299 295 289 282 278 256 255 257 258 248 247 234 237 225 212 204 187 206 233 206 224 225 225 247 237 235 242 234 212 213 212 205 205 176 205 216
125 122 270 254 274 287 262 275 287 297 298 306 308 304 301 298 296 272 255 261 263 269 262 256 237 222 195 183 181 198 211 220 228 225 230 223 222 234 242 227 230 207 214 221 219 213 201 200 179
98 358 279 293 259 250 292 295 296 297 286 282 303 303 316 318 311 294 277 271 260 255 258 256 240 188 197 196 192 158 182 205 223 208 219 217 219 223 236 227 216 213 215 213 215 210 219 217 177
233 185 228 242 303 264 304 284 331 348 292 313 316 310 325 306 314 307 286 276 272 266 252 238 240 207 182 213 159 126 113 75 227 225 230 230 223 220 224 229 227 223 204 220 207 207 206 222 199
262 204 236 274 331 316 50 293 286 322 315 343 322 343 339 342 357 3 343 305 284 272 256 237 212 202 191 178 167 176 165 201 218 252 235 248 238 237 229 233 230 228 214 225 222 204 198 210 218
231 179 238 276 264 312 143 260 266 312 345 336 329 331 352 348 336 6 6 354 9 5 329 207 160 128 132 108 129 154 209 234 261 266 273 269 247 233 235 234 238 232 224 227 221 214 213 217 226
329 305 9 93 53 273 231 199 294 7 329 319 328 349 352 360 359 5 358 11 14 26 47 44 73 59 59 74 62 55 38 3 328 278 267 274 266 255 248 248 244 243 234 233 229 225 222 219 215
211 287 337 360 8 240 182 183 264 344 339 323 345 4 8 4 6 11 8 20 20 25 32 38 44 48 49 59 58 49 41 35 29 12 346 345 340 355 334 271 245 248 252 247 240 233 229 227 221
245 67 337 304 322 296 63 241 280 45 358 340 17 17 13 12 14 11 15 23 30 33 38 42 45 47 42 54 49 45 46 46 37 23 19 28 9 9 349 5 354 329 297 260 237 239 238 232 228
49 259 54 267 68 289 255 284 217 342 350 357 17 15 9 10 18 22 21 29 33 34 32 38 41 50 45 46 49 47 46 51 46 35 23 14 13 6 335 358 8 0 2 348 312 234 231 219 214
183 234 63 208 313 294 282 271 292 327 332 354 27 12 355 5 21 26 26 28 32 33 37 37 39 45 42 43 46 40 40 42 44 40 16 25 14 11 344 4 10 354 5 354 345 343 327 291 237
117 273 213 310 185 234 300 263 209 308 322 347 350 31 345 1 24 31 37 35 36 34 39 36 45 42 40 38 34 37 30 34 45 43 36 3 25 25 13 346 8 7 352 359 348 355 1 5 317
273 228 136 139 246 233 268 273 178 63 28 45 243 141 148 29 28 36 38 41 44 39 37 39 41 40 41 33 54 42 34 29 34 30 37 16 18 15 20 9 13 8 4 357 2 1 357 5 349